Weather History for KEFT - February, 2012

Change the Weather History Date:

Monday, February 13, 2012

  Actual Average Record
Temperature  
Mean Temperature 24 °F -  
Max Temperature 32 °F 0 °F 44 °F (2011)
Min Temperature 15 °F - -7 °F (2008)
Degree Days  
Heating Degree Days 42    
Moisture  
Dew Point 19 °F    
Average Humidity 78    
Maximum Humidity 100    
Minimum Humidity 47    
Precipitation  
Precipitation 0.00 in - - ()
Sea Level Pressure  
Sea Level Pressure 29.98 in    
Wind  
Wind Speed 10 mph (South)    
Max Wind Speed 16 mph    
Max Gust Speed 21 mph    
Visibility 7 miles    
Events Snow    
Averages and records for this station are not official NWS values.
T = Trace of Precipitation, MM = Missing Value Source: NWS Daily Summary

Daily Weather History Graph

Daily Weather History Graph

Search for Another Location

Airport or City:

Trip Planner

Search our weather history database for the weather conditions in past years. The results will help you decide how hot, cold, wet, or windy it might be!

Date:

Astronomy

Feb. 13, 2012 Rise Set
Actual Time 6:58 AM CST 5:27 PM CST
Civil Twilight 6:29 AM CST 5:56 PM CST
Nautical Twilight 5:56 AM CST 6:29 PM CST
Astronomical Twilight 5:23 AM CST 7:02 PM CST
Moon No Moon Rise 9:46 AM CST (2/13)
Length of Visible Light 11h 26m
Length of Day
10h 28m
Waning Gibbous, 61% of the Moon is Illuminated
Feb 13
Waning Gibbous
Feb 14
Last Quarter
Feb 21
New
Feb 29
First Quarter
Mar 8
Full

Hourly Weather History & Observations

Time (CST) Temp. Windchill Dew Point Humidity Pressure Visibility Wind Dir Wind Speed Gust Speed Precip Events Conditions
12:15 AM 21.2 °F 9.5 °F 8.6 °F 58% 30.15 in 10.0 mi West 11.5 mph - N/A   Clear
12:35 AM 19.4 °F 6.6 °F 8.6 °F 63% 30.15 in 10.0 mi WSW 12.7 mph - N/A   Clear
12:55 AM 19.4 °F 8.6 °F 8.6 °F 63% 30.14 in 10.0 mi WSW 9.2 mph - N/A   Clear
1:15 AM 19.4 °F 8.6 °F 8.6 °F 63% 30.14 in 10.0 mi WSW 9.2 mph - N/A   Clear
1:35 AM 19.4 °F 7.9 °F 8.6 °F 63% 30.14 in 10.0 mi WSW 10.4 mph - N/A   Clear
1:55 AM 17.6 °F 7.3 °F 8.6 °F 68% 30.14 in 10.0 mi SW 8.1 mph - N/A   Clear
2:15 AM 17.6 °F 9.3 °F 6.8 °F 63% 30.13 in 10.0 mi SW 5.8 mph - N/A   Clear
2:35 AM 17.6 °F 10.7 °F 6.8 °F 63% 30.13 in 10.0 mi SSW 4.6 mph - N/A   Clear
2:55 AM 17.6 °F 10.7 °F 6.8 °F 63% 30.12 in 10.0 mi SSW 4.6 mph - N/A   Clear
3:15 AM 17.6 °F 10.7 °F 6.8 °F 63% 30.11 in 10.0 mi SSW 4.6 mph - N/A   Clear
3:35 AM 17.6 °F 10.7 °F 6.8 °F 63% 30.10 in 10.0 mi SSW 4.6 mph - N/A   Clear
3:55 AM 15.8 °F 7.2 °F 6.8 °F 68% 30.10 in 10.0 mi SSW 5.8 mph - N/A   Clear
4:15 AM 15.8 °F 7.2 °F 6.8 °F 68% 30.10 in 10.0 mi SSW 5.8 mph - N/A   Clear
4:35 AM 15.8 °F 6.1 °F 8.6 °F 73% 30.09 in 10.0 mi SSW 6.9 mph - N/A   Mostly Cloudy
4:55 AM 17.6 °F 8.2 °F 8.6 °F 68% 30.08 in 10.0 mi SSW 6.9 mph - N/A   Overcast
5:15 AM 19.4 °F 10.4 °F 8.6 °F 63% 30.08 in 10.0 mi SSW 6.9 mph - N/A   Overcast
5:35 AM 19.4 °F 9.5 °F 8.6 °F 63% 30.08 in 10.0 mi South 8.1 mph - N/A   Overcast
6:15 AM 21.2 °F 10.9 °F 10.4 °F 63% 30.07 in 10.0 mi South 9.2 mph - N/A   Overcast
6:35 AM 21.2 °F 11.7 °F 8.6 °F 58% 30.07 in 10.0 mi South 8.1 mph - N/A   Overcast
6:55 AM 23.0 °F 13.1 °F 10.4 °F 59% 30.07 in 10.0 mi South 9.2 mph - N/A   Overcast
7:15 AM 23.0 °F 12.4 °F 10.4 °F 59% 30.07 in 10.0 mi SSW 10.4 mph - N/A   Overcast
7:35 AM 23.0 °F 13.1 °F 10.4 °F 59% 30.06 in 10.0 mi South 9.2 mph - N/A   Overcast
7:55 AM 23.0 °F 12.4 °F 10.4 °F 59% 30.06 in 10.0 mi SSW 10.4 mph - N/A   Overcast
8:15 AM 24.8 °F 14.6 °F 10.4 °F 54% 30.06 in 10.0 mi SSW 10.4 mph - N/A   Overcast
8:35 AM 26.6 °F 16.8 °F 10.4 °F 51% 30.06 in 10.0 mi South 10.4 mph - N/A   Overcast
8:55 AM 26.6 °F 16.8 °F 12.2 °F 55% 30.05 in 10.0 mi South 10.4 mph - N/A   Overcast
9:15 AM 28.4 °F 19.7 °F 10.4 °F 47% 30.05 in 10.0 mi SSW 9.2 mph - N/A   Overcast
9:35 AM 28.4 °F 18.0 °F 10.4 °F 47% 30.05 in 10.0 mi SSW 12.7 mph - N/A   Overcast
9:55 AM 28.4 °F 18.5 °F 10.4 °F 47% 30.03 in 10.0 mi South 11.5 mph - N/A   Overcast
10:15 AM 30.2 °F 20.2 °F 12.2 °F 47% 30.02 in 10.0 mi South 12.7 mph - N/A   Overcast
10:35 AM 30.2 °F 19.8 °F 12.2 °F 47% 30.01 in 10.0 mi South 13.8 mph - N/A   Overcast
10:55 AM 28.4 °F 16.6 °F 19.4 °F 69% 30.01 in 4.0 mi South 16.1 mph 19.6 mph N/A Snow Light Snow
11:15 AM 28.4 °F 17.5 °F 21.2 °F 74% 30.00 in 1.5 mi South 13.8 mph - N/A Snow Light Snow
11:35 AM 28.4 °F 18.0 °F 26.6 °F 93% 29.99 in 1.8 mi South 12.7 mph - N/A Snow Light Snow
11:55 AM 28.4 °F 18.0 °F 26.6 °F 93% 29.97 in 2.5 mi South 12.7 mph - N/A Snow Light Snow
12:15 PM 28.4 °F 19.7 °F 26.6 °F 93% 29.95 in 4.0 mi South 9.2 mph - N/A Snow Light Snow
12:35 PM 28.4 °F 18.0 °F 28.4 °F 100% 29.95 in 10.0 mi South 12.7 mph - N/A Snow Light Snow
12:55 PM 30.2 °F 20.2 °F 26.6 °F 86% 29.94 in 10.0 mi South 12.7 mph 16.1 mph N/A   Overcast
1:15 PM 30.2 °F 19.8 °F 28.4 °F 93% 29.93 in 7.0 mi South 13.8 mph - N/A Snow Light Snow
1:35 PM 30.2 °F 18.9 °F 26.6 °F 86% 29.92 in 4.0 mi South 16.1 mph 20.7 mph N/A Snow Light Snow
1:55 PM 30.2 °F 19.8 °F 28.4 °F 93% 29.91 in 1.5 mi South 13.8 mph 19.6 mph N/A Snow Light Snow
2:15 PM 30.2 °F 19.8 °F 30.2 °F 100% 29.90 in 1.2 mi SSW 13.8 mph - N/A Snow Light Snow
2:35 PM 30.2 °F 20.8 °F 28.4 °F 93% 29.90 in 1.2 mi South 11.5 mph - N/A Snow Light Snow
2:55 PM 30.2 °F 21.3 °F 30.2 °F 100% 29.89 in 3.0 mi South 10.4 mph - N/A Snow Light Snow
3:15 PM 30.2 °F 20.2 °F 30.2 °F 100% 29.88 in 4.0 mi South 12.7 mph - N/A Snow Light Snow
3:35 PM 30.2 °F 21.9 °F 30.2 °F 100% 29.87 in 4.0 mi SSE 9.2 mph - N/A Snow Light Snow
3:55 PM 30.2 °F 19.8 °F 30.2 °F 100% 29.86 in 3.0 mi SSE 13.8 mph - N/A Snow Light Snow
4:15 PM 30.2 °F 21.3 °F 30.2 °F 100% 29.84 in 2.5 mi SSE 10.4 mph - N/A Snow Light Snow
4:35 PM 30.2 °F 20.8 °F 30.2 °F 100% 29.84 in 4.0 mi SSE 11.5 mph - N/A Snow Light Snow
4:55 PM 30.2 °F 21.9 °F 30.2 °F 100% 29.84 in 3.0 mi SSE 9.2 mph - N/A Snow Light Snow
5:15 PM 30.2 °F 21.3 °F 30.2 °F 100% 29.83 in 5.0 mi SSE 10.4 mph - N/A Snow Light Snow
5:35 PM 30.2 °F 21.3 °F 30.2 °F 100% 29.83 in 5.0 mi SSE 10.4 mph - N/A Snow Light Snow
5:55 PM 30.2 °F 21.9 °F 30.2 °F 100% 29.83 in 7.0 mi SSE 9.2 mph - N/A Snow Light Snow
6:15 PM 30.2 °F 21.3 °F 30.2 °F 100% 29.82 in 5.0 mi SSE 10.4 mph - N/A Snow Light Snow
6:35 PM 30.2 °F 21.9 °F 30.2 °F 100% 29.82 in 7.0 mi SSE 9.2 mph - N/A Snow Light Snow
6:55 PM 30.2 °F 22.6 °F 30.2 °F 100% 29.82 in 2.5 mi SSE 8.1 mph - N/A Snow Light Snow
7:15 PM 30.2 °F 22.6 °F 30.2 °F 100% 29.81 in 3.0 mi South 8.1 mph - N/A Snow Light Snow
7:35 PM 30.2 °F 20.2 °F 30.2 °F 100% 29.81 in 7.0 mi South 12.7 mph - N/A Snow Light Snow
7:55 PM 32.0 °F 22.1 °F 32.0 °F 100% 29.81 in 4.0 mi South 13.8 mph - N/A Snow Light Snow
8:15 PM 30.2 °F 19.3 °F 30.2 °F 100% 29.81 in 4.0 mi South 15.0 mph - N/A Snow Light Snow
8:35 PM 30.2 °F 19.8 °F 30.2 °F 100% 29.81 in 7.0 mi South 13.8 mph - N/A Snow Light Snow
8:55 PM 30.2 °F 20.2 °F 30.2 °F 100% 29.80 in 5.0 mi South 12.7 mph - N/A Snow Light Snow
9:15 PM 30.2 °F 19.8 °F 30.2 °F 100% 29.80 in 7.0 mi South 13.8 mph - N/A Snow Light Snow
9:35 PM 30.2 °F 19.8 °F 30.2 °F 100% 29.79 in 4.0 mi South 13.8 mph - N/A Snow Light Snow
9:55 PM 30.2 °F 20.8 °F 30.2 °F 100% 29.79 in 5.0 mi South 11.5 mph - N/A Snow Light Snow
10:15 PM 30.2 °F 20.8 °F 30.2 °F 100% 29.79 in 5.0 mi South 11.5 mph - N/A Snow Light Snow
10:35 PM 30.2 °F 20.8 °F 30.2 °F 100% 29.79 in 5.0 mi South 11.5 mph - N/A Snow Light Snow
10:55 PM 30.2 °F 21.3 °F 30.2 °F 100% 29.78 in 5.0 mi South 10.4 mph - N/A   Overcast
11:35 PM 30.2 °F 21.3 °F 30.2 °F 100% 29.78 in 5.0 mi South 10.4 mph - N/A   Overcast
11:55 PM 30.2 °F 20.2 °F 30.2 °F 100% 29.77 in 4.0 mi South 12.7 mph - N/A   Overcast